[Iaude] MPEC D31: 2024 CN8 [a=1.13,e=0.15,i=0.1,H=28.8]

mpec at cfa.harvard.edu mpec at cfa.harvard.edu
Sat Feb 17 02:57:43 EST 2024


M.P.E.C. 2024-D31                             Issued 2024 February 17, 07:56 UT

     The Minor Planet Electronic Circulars contain information on unusual
         minor planets, routine data on comets and natural satellites,
         and occasional editorial announcements.  They are published
    on behalf of Division F of the International Astronomical Union by the
          Minor Planet Center, Smithsonian Astrophysical Observatory,
                          Cambridge, MA 02138, U.S.A.
			  
             Prepared using the Tamkin Foundation Computer Network

                              MPC at CFA.HARVARD.EDU
            URL https://www.minorplanetcenter.net/    ISSN 1523-6714

                                    2024 CN8                                    


Observations:
     K24C08N* C2024 02 15.54682412 44 08.696-11 06 20.19         20.19wXED031F51
     K24C08N  C2024 02 15.55957112 43 53.542-11 04 38.87         20.24wXED031F51
     K24C08N  C2024 02 15.57229912 43 38.530-11 02 57.53         20.64wXED031F51
     K24C08N KC2024 02 16.14863612 36 33.14 -09 57 33.8          20.2 GVED031L01
     K24C08N KC2024 02 16.15023912 36 31.73 -09 57 22.2          20.4 GVED031L01
     K24C08N pC2024 02 16.15159812 36 30.50 -09 57 12.6          20.3 GVED031L01
     K24C08N KC2024 02 16.15312412 36 29.16 -09 57 02.4          20.2 GVED031L01
     K24C08N KC2024 02 16.15489412 36 27.61 -09 56 49.8          20.4 GVED031L01
     K24C08N KC2024 02 17.28573512 26 58.621-08 07 38.89         20.46GVED031I52
     K24C08N KC2024 02 17.29575612 26 52.112-08 06 54.86         20.72GVED031I52

Observer details:
F51 Pan-STARRS 1, Haleakala.  Observers J. Herman, T. Lowe, P. Minguez, A.
    Schultz, I. Smith.  Measurers K. Chambers, T. de Boer, J. Fairlamb, H.
    Gao, M. Huber, C.-C. Lin, E. Magnier, Y. Ramanjooloo, R. Wainscoat, R.
    Weryk.  1.8-m Ritchey-Chretien + CCD.
I52 Steward Observatory, Mt. Lemmon Station.  Observer J. B. Fazekas.
    Measurers E. C. Beshore, D. Fay, J. B. Fazekas, D. C. Fuls, A. R. Gibbs,
    A. D. Grauer, H. Groeller, J. K. Hogan, R. A. Kowalski, S. M. Larson, G.
    J. Leonard, D. Rankin, R. L. Seaman, F. C. Shelly, K. W. Wierzchos.  1.0-m
    prime focus + CCD.
L01 Visnjan Observatory, Tican.  Observer K. Korlevic.  1.0-m f/2.9 reflector
    + CCD.

Orbital elements:
2024 CN8                                                 Earth MOID = 0.0007 AU
Epoch 2024 Mar. 31.0 TT = JDT 2460400.5                 MPC                     
M  70.49651              (2000.0)            P               Q                  
n   0.82377523     Peri.  159.88852     -0.19124124     -0.98154120             
a   1.1270164      Node   301.13667     +0.90024228     -0.17462404             
e   0.1528002      Incl.    0.12802     +0.39114017     -0.07799560             
P   1.20           H   28.84          G   0.15           U   7                  
Residuals in seconds of arc
240215 F51  0.1-  0.0     240216 L01  0.1+  0.1+    240217 I52  0.1-  0.0
240215 F51  0.1+  0.0     240216 L01  0.3-  0.2+    240217 I52  0.1+  0.0
240215 F51 (1.1+  0.5-)   240216 L01  0.0   0.2-
240216 L01  0.2-  0.4-    240216 L01  0.2+  0.1+

Ephemeris:
2024 CN8                 a,e,i = 1.13, 0.15, 0                   q = 0.9548
Date    TT    R. A. (2000) Decl.     Delta      r    Elong.  Phase     V
2024 01 18    23 46 07.2 +01 27 48   0.03992 0.9647    60.4   117.5    26.4
...
2024 02 02    23 27 11.0 -02 22 26   0.01479 0.9740    39.3   140.2    26.5
...
2024 02 10    19 22 42.7 -32 47 16   0.0032140.9840    34.3   145.6    24.0
...
2024 02 16    12 38 29.2 -10 02 21   0.0097590.9945   133.4    46.2    20.5
2024 02 17    12 28 45.0 -08 23 39   0.01137 0.9963   137.3    42.2    20.8
2024 02 18    12 21 26.3 -07 08 27   0.01300 0.9982   140.5    39.0    21.0
...
2024 02 24    11 58 57.4 -03 14 36   0.02300 1.0100   153.3    26.1    21.9
...
2024 03 03    11 46 11.9 -01 04 45   0.03696 1.0271   165.1    14.4    22.5
...
2024 03 18    11 34 22.9 +00 56 07   0.06709 1.0622   175.8     3.9    23.5

A. U. Tomatic                (C) Copyright 2024 MPC           M.P.E.C. 2024-D31





More information about the Iaude mailing list